Regional Weather Roundup
Issued by NWS

Home | Current Version | Previous Version | Graphics & Text | Print | Product List | Glossary On
Versions: 1 2 3 4 5 6 7 8 9 10 11 12 13 14 15 16 17 18 19 20 21 22 23 24 25 26 27 28 29 30 31 32 33 34 35 36 37 38 39 40 41 42 43 44 45 46 47 48 49 50
000
ASUS43 KLMK 181310
RWRKY
KENTUCKY REGIONAL WEATHER ROUNDUP
NATIONAL WEATHER SERVICE LOUISVILLE KY
800 AM EST THU JAN 18 2018

NOTE "FAIR" INDICATES FEW OR NO CLOUDS BELOW 12,000 FEET
WITH NO SIGNIFICANT WEATHER AND/OR OBSTRUCTIONS TO VISIBILITY.

KYZ001>023-026-027-061>063-070>075-181400-
WESTERN AND SOUTH CENTRAL KENTUCKY

CITY           SKY/WX    TMP DP  RH WIND       PRES   REMARKS
PADUCAH        FAIR       9   4  80 CALM      30.49S
HENDERSON      FAIR      11   8  88 SW9       30.47  WCI  -2
OWENSBORO      FAIR       7   5  91 S6        30.49S WCI  -3
HOPKINSVILLE   FAIR       9   5  86 S3        30.50F
BOWLING GREEN  FAIR       8   5  87 S5        30.53S WCI   0
GLASGOW        FAIR       3   0  88 CALM      30.51S
$$

KYZ024-025-028>034-038-045-046-053-181400-
NORTH CENTRAL KENTUCKY

CITY           SKY/WX    TMP DP  RH WIND       PRES   REMARKS
LOUISVILLE/SDF FAIR      14   7  73 SW10      30.46R WCI   1
LOUISVILLE/LOU FAIR      14   8  77 SW9       30.46S WCI   2
FORT KNOX      FAIR       6   2  85 S5        30.43R WCI  -3
$$

KYZ035>037-039>044-047>052-055>060-089>105-181400-
NORTHEAST KENTUCKY

CITY           SKY/WX    TMP DP  RH WIND       PRES   REMARKS
LEXINGTON      FAIR       8   3  80 S10       30.43S WCI  -6
COVINGTON      FAIR      10   7  87 SW12      30.34F WCI  -5
FRANKFORT      FAIR       9   3  77 SW9       30.43R WCI  -4
$$

KYZ054-064>069-076>088-106>120-181400-
SOUTHEAST KENTUCKY

CITY           SKY/WX    TMP DP  RH WIND       PRES   REMARKS
JACKSON        FAIR       7   4  87 SW5       30.42R WCI  -2
LONDON         FAIR       3  -1  83 CALM      30.47S
SOMERSET       FAIR       3   0  85 CALM      30.51S
MIDDLESBORO    FAIR       5   2  88 CALM      30.51S
MONTICELLO     FAIR      -4  -7  87 W9        30.52S WCI -20
$$




USA.gov is the U.S. government's official web portal to all federal, state and local government web resources and services.